STARLINK-34860

Last updated on Tue Sep 16 2025 00:02:07 GMT+0000 (Coordinated Universal Time)

1 65357U 25190G 25257.92605778 -.03190447 00000+0 -36446-1 0 9991 2 65357 53.1583 268.2330 0004264 350.9976 9.0963 15.65355513 2325
UTC large
Height (km)
Speed (km/s)
/
Latitude / Longitude
Inclination (degrees)
Orbital Period (minutes)
Azimuth
Elevation
Range (km)
Doppler Factor

Next 0 passes for location: London (51.5072 / 0.1276)

Sorry there are no passes over London.